Terminal Aerodrome Forecast
Issued by NWS

Home | Current Version | Previous Version | Text Only | Print | Product List | Glossary On
Versions: 1 2 3 4 5 6 7 8 9 10 11 12 13 14 15 16 17 18 19 20 21
000
FTUS43 KDDC 241317 AAA
TAFHYS
TAF AMD
KHYS 241317Z 2413/2512 18015KT P6SM BKN070
     FM241500 19010KT P6SM -RA BKN040
     FM250000 18007KT P6SM VCTS BKN060CB
     FM250400 14007KT P6SM -SHRA VCTS BKN060CB=

USA.gov is the U.S. government's official web portal to all federal, state and local government web resources and services.